EA3AGY-13 Weather Reports


time (UTC)temp
F
wind
direction
speed
knots
gust
knots
rain 1hr
in
rain 24hr
in
rain mn
in
humidity
%
barometer
mb
20260507151500 55 67 2.6 3.5 0.00 0.00 0.00 20 1010.9
20260507150458 55 45 0.9 3.5 0.00 0.00 0.00 19 1010.7
20260507145456 57 22 0.0 2.6 0.00 0.00 0.00 17 1010.8
20260507144453 58 90 0.0 2.6 0.00 0.00 0.00 17 1010.7
20260507143450 57 135 0.0 4.3 0.00 0.00 0.00 17 1010.8
20260507142450 58 45 0.9 1.7 0.00 0.00 0.00 17 1010.8
20260507140443 59 281 0.9 4.3 0.00 0.00 0.00 17 1010.9
20260507135443 61 22 1.7 3.5 0.00 0.00 0.00 18 1011.1
20260507131431 59 315 2.6 7.0 0.00 0.00 0.00 22 1011.3
20260507130431 58 45 1.7 2.6 0.00 0.00 0.00 22 1011.5
20260507123424 57 337 0.9 2.6 0.00 0.00 0.00 23 1011.5
20260507114411 56 0 0.9 2.6 0.00 0.00 0.06 21 1011.6
20260507105358 54 45 0.0 2.6 0.00 0.00 0.06 20 1011.9
20260507104356 53 157 0.9 3.5 0.00 0.00 0.06 21 1011.8
20260507103355 55 326 0.0 1.7 0.00 0.00 0.06 25 1012.0
20260507100347 53 90 0.9 2.6 0.00 0.00 0.06 23 1012.0
20260507095344 55 303 1.7 2.6 0.00 0.00 0.06 28 1011.9
20260507094342 54 337 1.7 2.6 0.00 0.00 0.06 27 1011.8
20260507093339 50 45 0.9 1.7 0.00 0.00 0.06 22 1011.9
20260507092337 51 135 0.9 2.6 0.00 0.00 0.06 26 1012.0
20260507090332 51 180 0.9 2.6 0.00 0.00 0.06 26 1011.9
20260507085330 51 292 0.9 3.5 0.00 0.00 0.06 31 1011.8
20260507082324 51 213 2.6 3.5 0.00 0.00 0.06 33 1012.0
20260507081321 51 225 3.5 3.5 0.00 0.00 0.06 35 1012.1
20260507075318 50 315 2.6 2.6 0.00 0.00 0.06 36 1012.0
20260507050235 39 90 2.6 4.3 0.00 0.00 0.06 43 1011.5
20260507044231 39 90 1.7 2.6 0.00 0.00 0.06 42 1011.3
20260507042226 40 90 3.5 4.3 0.00 0.00 0.06 44 1011.5
20260507041224 39 90 2.6 3.5 0.00 0.00 0.06 45 1011.4
20260507035219 40 90 0.9 2.6 0.00 0.00 0.06 40 1011.4
20260507034216 40 45 0.9 1.7 0.00 0.00 0.06 40 1011.3
20260507033214 40 45 0.9 0.9 0.00 0.00 0.06 39 1011.3
20260507031210 40 45 0.0 0.9 0.00 0.00 0.06 38 1011.4
20260507023202 40 90 0.9 1.7 0.00 0.00 0.06 41 1011.7
20260507021155 42 90 0.9 1.7 0.00 0.00 0.06 36 1011.7
20260507020153 43 0 0.0 0.0 0.00 0.00 0.06 36 1011.8
20260507012143 43 45 0.0 0.0 0.00 0.00 0.06 35 1011.9
20260507011141 43 90 0.0 0.0 0.00 0.00 0.06 34 1011.9
20260507004134 42 90 0.0 0.0 0.00 0.00 0.06 35 1012.2
20260507003131 43 45 0.0 0.0 0.00 0.00 0.06 35 1012.3
20260507002131 43 90 0.0 0.9 0.00 0.00 0.06 34 1012.4
20260507001127 44 45 0.0 0.0 0.00 0.00 0.06 34 1012.4
20260506231114 43 90 0.0 0.0 0.00 0.00 0.06 34 1012.4
20260506225108 43 135 0.0 0.9 0.00 0.00 0.06 33 1012.6
20260506213049 43 45 0.0 0.9 0.00 0.00 0.06 35 1012.5
20260506211044 41 90 0.9 2.6 0.00 0.00 0.06 36 1012.3
20260506205039 40 45 0.9 3.5 0.00 0.00 0.06 35 1012.4
20260506204037 40 45 1.7 3.5 0.00 0.00 0.06 39 1012.3
20260506203034 40 45 1.7 9.6 0.00 0.00 0.06 39 1012.2
20260506202032 42 0 3.5 7.0 0.00 0.00 0.06 33 1012.0
20260506201030 48 135 0.0 0.0 0.00 0.00 0.06 31 1011.7
20260506195025 48 90 0.0 0.0 0.00 0.00 0.06 30 1011.4
20260506194023 48 45 0.0 0.0 0.00 0.00 0.06 30 1011.2
20260506193020 48 0 0.0 1.7 0.00 0.00 0.06 32 1011.1
20260506192018 48 101 0.0 0.0 0.00 0.00 0.00 30 1011.1
20260506190014 49 90 0.0 0.0 0.00 0.00 0.00 29 1010.7
20260506185011 48 45 0.0 0.0 0.00 0.00 0.00 29 1010.6
20260506184010 49 45 0.0 0.0 0.00 0.00 0.00 29 1010.7
20260506183006 49 90 0.0 0.0 0.00 0.00 0.00 29 1010.6
20260506173958 50 45 0.0 0.9 0.00 0.00 0.00 30 1010.2
20260506172952 49 90 0.0 0.0 0.00 0.00 0.00 30 1010.1
20260506164938 49 45 0.0 3.5 0.00 0.00 0.00 33 1009.8
20260506161931 49 90 1.7 3.5 0.00 0.00 0.00 27 1009.7
20260506160929 49 56 3.5 9.6 0.00 0.00 0.00 22 1009.6
20260506155926 50 67 4.3 5.2 0.00 0.00 0.00 19 1009.4